Regional Weather Roundup
Issued by NWS Kansas City/Pleasant Hill, MO

Home | Current Version | Previous Version | Graphics & Text | Print | Product List | Glossary Off
Versions: 1 2 3 4 5 6 7 8 9 10 11 12 13 14 15 16 17 18 19 20 21 22 23 24 25 26 27

000
ASUS43 KEAX 170510
RWREAX

WEATHER ROUNDUP FOR EASTERN KANSAS AND NORTHWEST MISSOURI
NATIONAL WEATHER SERVICE KANSAS CITY/PLEASANT HILL MO
1200 AM CDT THU AUG 17 2017

KSZ040-057-103>105-MOZ028-029-037-043-170600-
...KANSAS CITY METROPOLITAN AREA...

CITY           SKY/WX    TMP DP  RH WIND       PRES   REMARKS
K.C. INTL      CLOUDY    71  70  96 S9        29.84R
K.C. DOWNTOWN  CLOUDY    71  69  93 S9        29.83S
LEES SUMMIT    CLOUDY    69  68  96 SW15      29.86S
OLATHE - IXD   CLOUDY    68  67  96 S10       29.88R
OLATHE - OJC   CLOUDY    67  67 100 SW9       29.87R
LAWRENCE       CLOUDY    70  70 100 SE5       29.85R

$$

MOZ001>008-011>017-020>025-030>033-038>040-044>046-053-054-170600-
...NORTHERN AND CENTRAL MISSOURI...

CITY           SKY/WX    TMP DP  RH WIND       PRES   REMARKS
ST. JOSEPH     MOCLDY    72  69  90 W10       29.82R FOG
WARRENSBURG    CLOUDY    68  64  88 S8        29.83S
WHITEMAN AFB   CLOUDY    68  68 100 SW14      29.83F
CLINTON        LGT RAIN  68  68 100 S10G16    29.87R
SEDALIA        LGT RAIN  69  69 100 SW9       29.87R
WARSAW         NOT AVBL
CHILLICOTHE      N/A     72  72 100 S5        29.82R
KIRKSVILLE     CLOUDY    74  72  93 S12       29.81F

$$

MOZ041-047>049-056>058-063>065-088>090-097-170600-
...EASTERN AND SOUTHERN MISSOURI...

CITY           SKY/WX    TMP DP  RH WIND       PRES   REMARKS
ST. LOUIS INTL CLOUDY    72  70  93 SW14      29.91R
SPIRIT OF STL  LGT RAIN  71  70  96 SW6       29.90R
COLUMBIA       LGT RAIN  69  68  96 S14       29.85F
JEFFERSON CITY LGT RAIN  70  69  97 SE8       29.86R
ROLLA          HVY RAIN  66  66 100 S14       29.97R FOG
OSAGE BEACH    LGT RAIN  68  67  96 SE12      29.89F
SPRINGFIELD    LGT RAIN  68  67  96 SW10      29.96F
BRANSON        LGT RAIN  68  64  88 NW15G30   30.04R
JOPLIN         LGT RAIN  69  68  96 S14       29.93F
WEST PLAINS    CLOUDY    80  72  76 S8        29.97R

$$

IAZ060-094-KSZ022-034>040-054-083-096-NEZ052-066-093-170600-
...KANSAS...SOUTHEAST NEBRASKA AND IOWA...

CITY           SKY/WX    TMP DP  RH WIND       PRES   REMARKS
TOPEKA         CLOUDY    72  69  90 CALM      29.85R
MANHATTAN      CLOUDY    71  66  84 VRB3      29.89R
EMPORIA        CLOUDY    70  69  97 S7        29.89S
CHANUTE        CLOUDY    70  68  93 S6        29.89F
WICHITA        CLOUDY    70  69  97 SW5       29.92R
OMAHA          PTCLDY    69  61  75 W14       29.82F
LINCOLN        CLEAR     67  61  81 W7        29.88F
FALLS CITY     MOCLDY    72  65  78 NW12      29.84R
LAMONI         MOCLDY    72  67  84 SW8       29.80R
DES MOINES     PTCLDY    71  66  84 W9        29.76R

$$





USA.gov is the U.S. government's official web portal to all federal, state and local government web resources and services.